Regional Weather Roundup
Issued by NWS Green Bay, WI

Home | Current Version | Previous Version | Graphics & Text | Print | Product List | Glossary Off
Versions: 1 2 3 4 5 6 7 8 9 10 11 12 13 14 15 16 17 18 19 20 21 22 23 24 25 26 27 28 29 30 31 32 33 34 35 36 37 38 39 40 41 42 43 44 45 46 47 48 49 50

000
ASUS43 KGRB 300659
RWRGRB

NORTH-CENTRAL AND NORTHEAST WISCONSIN REGIONAL WEATHER ROUNDUP
NATIONAL WEATHER SERVICE GREEN BAY WI
200 AM CDT WED JUL 30 2014

WIZ005-009-010>012-018-019-300800-
NORTH CENTRAL WISCONSIN

CITY           SKY/WX    TMP DP  RH WIND       PRES   REMARKS
IRONWOOD       NOT AVBL
MANITOWISH WTR NOT AVBL
ARBOR VITAE    NOT AVBL
EAGLE RIVER    NOT AVBL
LAND O LAKES   NOT AVBL
RHINELANDER    CLEAR     52  51  97 CALM      30.05S
PHILLIPS       NOT AVBL
ANTIGO         NOT AVBL
TOMAHAWK       NOT AVBL
MERRILL        NOT AVBL
$$

WIZ013-073-300800-
NORTHEAST WISCONSIN

CITY           SKY/WX    TMP DP  RH WIND       PRES   REMARKS
IRON MOUNTAIN  CLEAR     50  47  89 NW5       30.01S
MARINETTE      CLEAR     57  54  88 N3        29.99S
$$

WIZ017-030-035>037-045-300800-
CENTRAL WISCONSIN

CITY           SKY/WX    TMP DP  RH WIND       PRES   REMARKS
MEDFORD        NOT AVBL
WAUSAU         CLEAR     56  54  93 NW7       30.01S
MOSINEE        NOT AVBL
MARSHFIELD     PTCLDY    56  54  93 NW5       30.03R
WISC RAPIDS    MOCLDY    57  56  96 NW5       30.04S
STEVENS POINT  NOT AVBL
WAUPACA        NOT AVBL
SHAWANO        NOT AVBL
CLINTONVILLE   NOT AVBL
$$

WIZ038-039-048-051-300800-
FOX VALLEY

CITY           SKY/WX    TMP DP  RH WIND       PRES   REMARKS
NWS GREEN BAY  CLOUDY    59  58  96 NW5       29.99S
APPLETON       NOT AVBL
OSHKOSH        CLEAR     58  56  93 W5        29.99S
FOND DU LAC    CLEAR     56  54  93 SW5       30.00F
$$

WIZ022-050-052-300800-
EAST CENTRAL WISCONSIN

CITY           SKY/WX    TMP DP  RH WIND       PRES   REMARKS
STURGEON BAY   PTCLDY    59  55  88 NE5       29.99F
MANITOWOC      NOT AVBL
SHEBOYGAN      CLEAR     58  55  90 W7        29.98F
$$

LMZ563-521-522-541>543-300800-
LAKESHORE

STATION/POSITION TIME  TEMP    WIND        PRES    VSBY  WAVE
                       AIR SEA DIR/SP/G                  HT/PER
                 (UTC) (F)     (DEG/KT/KT) (MB)    (MI)  (FT/S)
SHEBOYGAN LKSHOR 0600   62     280/ 11/ 14 1015.4S
KEWAUNEE LKSHORE 0600   57      10/  1/  2 1016.0F
ALGOMA MARINA    0600           40/  8/ 10   N/A
NORTHPORT PIER   0600   61      10/  5/  7 1015.6S
N MID LAKE BUOY  0600   57 55  350/  8/  8 1014.8F         0
S GREEN BAY BUOY 0600   64 66   60/ 14     1016.2R
SISTER BAY LKSHO 0600   58        CALM       N/A
CHAMBERS ISLAND  0600   63      10/  9/ 12 1015.6S
MENOMINEE LKSHOR 0600   61     350/  8/  8 1016.2F
$$



USA.gov is the U.S. government's official web portal to all federal, state and local government web resources and services.